Meath Environmental Platform

Observations for Trim Patrick St

Time AQI Temp °C Hum % Pres Pa CO μg/m³ H₂S μg/m³ NO μg/m³ NO₂ μg/m³ O₃ μg/m³ SO₂ μg/m³ PM1 μg/m³ PM2.5 μg/m³ PM10 μg/m³
Friday 7 August 2026
03:32 2 11.9 80 38,460 0.33 2.54 3.94 17.45 25.54 0 2 5.93 6.53
03:31 2 12 80 38,460 0.33 1.45 3.9 17.34 24.21 0 2 5.24 5.76
03:30 2 12 80 38,460 0.31 2.64 3.86 20.47 23.15 0 2 5.24 5.76
03:29 2 12 80 38,460 0.33 2.23 3.92 17.31 28.22 0 2 5.25 5.78
03:28 2 12 80 38,460 0.33 2.15 3.87 16.88 20.27 0 2 5.94 6.54
03:27 2 12 80 38,460 0.31 3.54 3.81 21.81 30.44 0 2 5.95 6.54
03:26 2 12 80 38,460 0.31 2.74 3.83 19.29 21.58 0 3.71 6.64 7.31
03:19 2 12 79 38,460 0.32 3.08 3.83 17.46 23.11 0 3.71 7.4 8.14
03:18 2 12.1 79 38,460 0.3 4.53 3.79 25.64 33.01 0 2 5.98 6.58
03:17 2 12 79 38,460 0.31 4.45 3.76 23.24 33.55 0 2.86 5.97 6.56
03:16 2 12.1 79 38,460 0.3 4.19 3.71 26.96 33.78 0 2 5.97 6.56
03:15 2 12 79 38,460 0.31 3.39 3.77 20.67 34.69 0 2.86 5.99 6.59
03:14 2 12 79 38,460 0.31 3.65 3.8 17.47 25.08 0 2 6 6.59
03:13 2 12.1 79 38,460 0.3 3.88 3.72 26.02 29.71 0 2.86 6.7 7.37
03:12 2 12.1 79 38,460 0.3 3.88 3.78 16.86 25.3 0 2 6.01 6.61
03:11 2 12.1 79 38,460 0.3 4.43 3.74 26.93 32.73 0 2.86 6.69 7.36
03:10 2 12.1 79 38,460 0.3 3.78 3.85 17.63 23.82 0 2 6 6.59
03:09 2 12.1 78 38,460 0.31 4.04 3.88 28.97 32.24 0 2 6.03 6.63
03:08 2 12.1 79 38,460 0.31 4.14 3.94 19.37 28.64 0 2 6 6.59
03:07 2 12.1 79 38,460 0.29 2.93 3.96 22.68 28.85 0 2.86 6.01 6.61